Retour au catalogue

DELTA 1 DEB

ActifSSO
NORAD 18467·DEBRIS·🇺🇸 United States

Lancé Mar 5, 1978 depuis Vandenberg Space Force Base

Loading…

Prochains Passages (prochaines 24 heures)

TLE

FraisSource: Space-Track

Époque: Sep 14, 2026, 00:38 UTC

1 18467U 78026HE  26257.02677654  .00000212  00000-0  10312-3 0  9993
2 18467  98.8186 282.7851 0093408 142.5806 248.3157 14.25879211157475

Suivez DELTA 1 DEB en temps réel avec AllMySat

Download on the App Store